Overview Statistics Trail Chart Weather Telemetry Raw packets
 

This is the latest recevied weather packets stored in our database for station/object K6GMW. If no packets are shown the sender has not sent any weather packets the latest 10 day(s).

<< 81 82 83 84 85 86 87 >>
Time Temp. Humidity Pressure Rain* Wind** Luminosity Snow
1788035551 38.33° C 27% 1016.4 hPa 0 mm - 162 W/m² -
1788035247 37.78° C 29% 1016.6 hPa 0 mm - 775 W/m² -
1788034942 38.33° C 28% 1016.5 hPa 0 mm - 783 W/m² -
1788034638 37.78° C 28% 1016.6 hPa 0 mm - 668 W/m² -
1788034335 37.78° C 28% 1016.9 hPa 0 mm - 799 W/m² -
1788034034 37.78° C 29% 1016.7 hPa 0 mm - 831 W/m² -
1788033734 38.33° C 28% 1016.9 hPa 0 mm - 156 W/m² -
1788033434 37.78° C 30% 1017 hPa 0 mm - 678 W/m² -
1788033129 37.78° C 31% 1017 hPa 0 mm - 919 W/m² -
1788032824 38.33° C 31% 1017.1 hPa 0 mm - 904 W/m² -
1788032523 38.89° C 33% 1017.1 hPa 0 mm - 908 W/m² -
1788032219 38.89° C 31% 1017.3 hPa 0 mm - 920 W/m² -
1788031915 37.78° C 33% 1017.4 hPa 0 mm - 913 W/m² -
1788031615 37.22° C 33% 1017.5 hPa 0 mm - 926 W/m² -
1788031315 36.67° C 32% 1017.5 hPa 0 mm - 934 W/m² -
1788031014 38.33° C 31% 1017.5 hPa 0 mm - 324 W/m² -
1788030709 38.33° C 32% 1017.6 hPa 0 mm - 954 W/m² -
1788030403 37.22° C 33% 1017.8 hPa 0 mm - 969 W/m² -
1788030099 37.22° C 33% 1017.7 hPa 0 mm - 969 W/m² -
1788029798 37.22° C 35% 1017.7 hPa 0 mm - 948 W/m² -
1788029493 37.22° C 35% 1017.8 hPa 0 mm - 929 W/m² -
1788029206 37.22° C 35% 1017.9 hPa 0 mm - 963 W/m² -
1788028892 36.67° C 36% 1017.9 hPa 0 mm - 985 W/m² -
1788028587 36.67° C 36% 1018.2 hPa 0 mm - 305 W/m² -
1788028282 37.22° C 36% 1018.1 hPa 0 mm - 1043 W/m² -

* Rain latest hour (hover to see other rain measurements)
** Current wind speed in m/s (hover to see current wind gust speed)